Theta_e
347 347 350 352 352 351 352 351 352 348 341 339 340 342 345 346 347 345 345 344 341 340 340 339 339 338 338 338 340 344 346 343 344 340 345 351 350 345 348 351 351 351 351
343 344 349 351 352 352 351 351 351 348 339 337 338 342 347 351 352 351 350 345 350 347 345 347 346 347 344 345 343 345 350 350 350 351 353 351 351 351 351 347 347 350 351
343 342 343 350 350 348 347 343 347 341 341 340 341 341 344 345 350 350 348 349 351 348 347 349 351 349 345 346 349 348 348 348 351 349 349 349 350 351 353 353 345 349 350
344 342 347 350 344 344 337 337 341 343 343 346 346 344 343 341 344 348 351 351 351 349 345 345 346 346 346 346 344 347 347 350 349 348 344 346 346 347 349 353 348 345 348
344 343 349 350 347 344 339 337 342 345 344 348 348 346 346 345 347 347 349 348 346 342 340 339 338 336 336 338 341 343 344 346 350 350 346 341 345 347 348 351 350 347 346
344 344 350 353 351 347 339 342 345 348 346 347 347 346 349 349 346 344 343 341 339 338 337 335 336 341 340 341 339 337 340 342 344 345 347 336 343 347 346 350 350 351 347
344 346 351 352 352 351 351 348 347 350 349 348 349 348 346 342 340 337 336 336 336 336 338 340 345 349 350 350 348 343 341 339 342 342 343 344 339 344 345 348 350 349 349
342 347 349 350 351 349 352 351 352 353 353 353 349 344 339 334 333 334 336 339 341 342 342 344 348 351 352 351 350 347 346 341 343 342 341 344 345 346 346 345 349 350 346
340 347 349 351 350 352 356 357 354 351 349 345 340 338 334 334 334 336 338 341 342 345 346 347 347 348 351 350 349 348 348 347 348 339 337 341 348 349 347 348 345 347 347
340 346 348 347 346 352 353 353 351 342 343 339 338 334 334 337 340 342 343 344 346 348 351 351 350 349 349 350 349 348 348 347 347 343 338 344 348 349 348 345 344 341 344
347 349 349 348 346 350 348 342 341 344 347 344 345 340 336 340 342 346 348 349 350 351 352 351 349 349 349 348 347 347 347 347 345 345 344 344 348 349 351 347 346 343 341
349 348 348 347 344 346 349 348 348 345 347 343 341 336 339 342 343 346 349 351 353 352 353 351 349 349 348 346 346 347 348 348 347 345 345 347 349 352 351 350 347 346 342
348 348 347 345 342 345 347 346 344 341 340 338 336 335 337 340 343 346 349 351 353 354 354 354 353 349 350 349 348 348 348 349 351 350 348 349 352 352 350 349 348 347 344
350 346 345 344 342 341 345 342 339 339 338 337 334 336 340 344 348 352 353 351 353 355 354 353 353 347 351 351 350 349 348 349 351 352 352 352 353 352 352 350 348 346 345
350 348 342 342 340 338 342 336 335 336 335 335 340 342 344 347 350 352 354 353 354 355 355 354 353 352 348 348 348 349 352 353 353 353 353 354 353 353 353 350 348 345 346
350 350 347 341 337 336 334 335 341 343 343 339 343 346 347 348 346 347 352 353 352 353 354 353 354 353 352 352 352 352 352 353 354 353 354 354 353 351 351 346 344 346 346
349 349 344 339 335 335 333 337 345 346 347 347 347 346 348 349 347 346 350 353 353 355 354 354 354 353 352 353 351 351 348 351 350 350 352 353 351 347 344 341 343 344 345
347 346 345 343 340 338 337 344 345 346 347 347 348 347 347 348 349 349 352 354 353 354 352 354 354 354 352 349 348 348 340 346 352 351 349 351 348 348 342 342 344 343 344
346 345 345 345 345 345 344 345 345 346 348 348 347 346 348 349 349 350 350 353 354 354 353 354 353 353 352 351 350 349 349 349 351 352 349 346 348 349 345 343 345 345 345
344 345 345 345 345 345 346 346 346 346 349 348 347 347 348 348 349 350 351 352 354 355 355 354 351 349 350 352 351 350 349 348 349 349 350 352 351 350 346 343 344 346 346
344 344 344 344 345 345 346 347 347 350 350 348 347 345 347 347 348 349 352 353 355 355 354 353 353 350 349 353 352 349 347 342 344 345 349 351 345 346 350 351 346 346 347
342 344 346 346 346 346 348 349 350 349 348 348 347 345 345 347 348 349 353 353 354 355 354 353 350 349 348 352 349 344 343 343 342 341 346 345 347 343 346 351 353 352 349
343 344 346 348 348 348 348 349 350 349 349 347 343 343 346 348 349 350 353 354 354 353 352 353 350 347 350 351 350 347 343 343 337 340 344 345 343 341 343 346 352 352 352
343 344 346 348 348 348 348 349 349 350 349 347 340 343 347 348 349 349 353 355 353 352 353 352 352 349 344 350 351 351 349 345 337 340 339 339 339 341 340 344 350 349 349
343 345 346 347 349 349 349 349 349 351 349 346 341 344 348 349 350 351 352 356 355 354 354 353 354 350 346 345 349 351 350 346 340 340 343 340 341 340 339 341 342 345 348
343 345 346 347 349 350 350 350 351 351 350 346 344 344 348 349 351 350 352 356 355 354 353 354 353 355 351 350 351 353 351 346 343 344 345 345 345 348 350 350 349 350 352
Wind_Speed
21 23 20 18 18 18 17 17 17 17 19 20 21 21 20 19 19 18 16 15 13 11 9 7 5 4 4 4 5 6 5 4 4 5 6 6 5 7 10 10 10 12 13
34 27 23 19 19 18 17 17 16 16 16 17 17 18 17 16 15 15 14 12 11 9 8 6 5 4 4 3 3 3 5 5 5 5 5 6 7 9 8 8 9 10 13
35 29 25 21 20 20 18 17 16 15 14 14 15 15 15 14 12 12 11 10 9 8 7 6 5 4 4 3 3 3 4 6 6 6 7 7 8 8 6 7 9 9 11
34 30 27 23 21 21 20 17 15 14 13 13 13 14 13 12 10 9 9 8 7 6 6 5 5 4 4 3 3 3 3 3 3 5 5 6 7 6 5 10 9 11 10
33 30 27 24 21 20 19 16 15 13 13 13 13 13 12 11 10 8 8 7 6 5 5 4 4 4 4 4 4 4 4 4 4 4 4 6 5 7 6 7 8 9 12
33 30 25 23 21 19 19 17 15 14 14 13 13 12 11 10 9 8 7 6 6 6 6 6 6 6 6 5 5 6 6 5 4 5 4 2 11 8 9 8 8 9 10
32 29 25 22 18 17 16 16 15 14 14 13 12 11 11 9 8 7 7 7 7 7 7 7 7 7 7 7 7 7 7 7 7 7 6 6 6 6 8 10 10 11 11
33 29 25 23 20 18 16 15 14 13 13 13 12 11 10 9 8 7 7 7 8 8 8 8 7 8 8 8 8 8 8 9 9 10 9 9 9 9 10 10 12 12 12
32 30 27 24 21 18 17 16 15 14 14 13 12 11 10 9 8 8 8 8 8 8 9 8 8 8 9 9 9 9 8 9 10 11 11 11 10 10 11 13 13 14 13
33 30 29 27 24 22 20 17 16 15 14 13 12 11 10 9 8 8 8 9 9 9 10 10 9 9 10 10 10 9 10 10 11 11 13 13 12 11 11 11 12 12 13
24 29 29 28 26 24 21 19 17 16 15 13 12 11 10 11 10 10 10 10 10 11 10 11 10 9 10 10 9 8 10 11 12 12 15 15 14 14 15 14 13 12 14
24 31 31 30 29 26 23 21 19 18 17 15 14 13 12 12 11 11 12 13 11 10 9 9 10 10 11 12 10 10 10 11 12 13 14 14 15 16 16 15 18 16 17
32 29 34 33 30 27 26 23 21 19 17 17 15 14 13 13 13 13 15 14 13 13 15 12 12 11 12 13 12 12 13 15 15 15 15 15 14 15 15 16 18 19 18
27 36 34 34 32 30 27 24 22 21 20 17 15 14 15 14 14 14 13 12 13 14 13 12 11 10 11 13 12 12 13 13 12 13 16 15 16 14 16 17 17 19 19
28 32 36 36 34 32 29 26 23 21 20 18 17 16 16 16 16 15 13 14 13 9 10 9 11 10 13 12 13 16 14 13 14 15 15 16 16 17 15 16 17 17 18
33 35 36 37 37 34 32 29 25 22 19 20 19 19 18 19 20 19 15 14 14 11 10 12 10 9 10 10 11 10 11 12 14 16 16 15 12 10 10 11 15 13 12
37 39 37 38 37 36 34 33 30 25 22 21 21 23 21 21 19 19 18 16 14 10 10 8 9 8 10 10 13 12 8 8 10 12 12 10 10 9 10 9 9 12 11
36 37 40 38 38 37 37 34 32 28 24 20 17 18 21 23 22 19 19 16 17 11 10 7 7 8 10 11 14 15 16 14 12 13 12 13 10 9 10 8 7 9 12
41 40 40 39 39 40 38 36 33 28 24 22 16 17 17 20 22 23 24 19 16 12 10 11 8 8 11 12 12 8 7 10 11 12 13 19 19 13 11 9 8 9 11
39 41 43 43 41 42 39 36 33 29 24 23 20 16 14 14 16 20 22 20 17 14 12 11 8 7 7 11 10 12 12 9 9 11 10 11 12 11 11 12 12 12 13
34 39 41 40 40 39 38 36 34 33 30 27 23 22 19 17 16 20 21 22 19 15 12 10 9 6 9 9 7 6 11 14 15 14 12 12 12 11 12 13 15 15 15
35 38 41 43 42 43 38 38 33 38 32 29 27 26 23 19 19 22 22 20 19 15 13 11 10 5 7 11 5 3 3 5 16 20 16 14 18 15 10 11 14 16 17
33 39 41 44 44 43 40 36 32 26 25 20 22 22 22 20 20 19 23 22 19 18 13 12 10 10 11 11 17 5 1 3 4 5 15 19 16 12 14 14 15 13 15
38 36 39 41 43 42 43 39 35 30 25 25 21 24 21 21 19 20 23 24 20 19 15 13 12 13 14 12 10 17 12 5 2 4 5 10 12 13 12 16 18 16 17
29 33 37 39 40 41 43 41 39 34 29 23 21 22 19 18 21 22 24 29 26 21 19 15 14 15 15 15 14 7 9 6 5 3 3 4 0 8 16 14 17 22 21
27 30 34 38 40 41 42 42 40 38 32 27 23 24 22 20 20 20 24 30 29 24 21 18 17 18 18 17 17 14 11 6 6 5 3 3 3 4 2 8 13 16 14
Wind_Direction
180 168 159 154 145 144 144 141 138 135 137 139 141 145 146 146 147 147 149 151 152 156 157 155 153 155 151 170 181 183 178 169 154 147 142 139 137 140 139 138 139 146 145
164 166 161 158 151 151 150 148 145 144 141 143 150 149 146 148 148 150 151 156 154 159 158 152 152 149 139 142 140 164 166 157 151 138 136 143 152 148 146 150 153 150 149
163 164 162 158 161 157 155 153 153 153 149 151 151 154 153 153 153 153 155 156 157 159 155 150 155 150 146 146 132 137 156 157 153 165 164 168 164 172 174 171 160 159 161
163 164 161 166 164 161 159 158 159 158 157 158 158 156 157 158 158 159 161 160 160 163 168 165 173 174 179 173 161 157 168 146 154 163 174 164 164 193 200 185 173 165 169
165 167 166 166 169 164 164 165 166 167 164 160 156 158 158 160 163 169 171 174 180 185 192 199 214 217 220 213 205 203 207 193 168 218 212 245 224 197 191 190 182 183 179
167 170 167 170 171 171 171 171 173 174 170 167 164 162 160 162 169 179 189 200 211 225 235 238 244 256 258 251 245 237 233 230 214 238 266 328 173 198 194 203 201 205 195
170 171 171 175 176 176 177 178 179 179 177 175 175 175 177 181 193 202 216 229 238 249 254 256 253 254 257 261 256 252 248 242 237 244 247 239 223 213 223 207 212 212 209
173 173 176 179 182 181 184 183 183 185 186 185 187 189 193 200 216 227 237 244 247 249 256 261 260 259 258 256 254 255 256 254 248 246 246 244 254 249 234 237 217 221 218
177 178 180 185 186 185 189 187 191 195 197 195 196 203 211 218 227 233 239 244 250 252 255 260 267 268 262 264 266 263 261 262 263 258 253 254 272 274 246 246 243 225 226
182 186 187 189 189 189 193 197 200 204 207 206 207 214 223 229 234 239 243 247 255 258 264 266 264 268 270 266 268 270 269 266 263 262 255 259 271 276 267 245 253 242 234
187 193 193 194 194 196 200 202 205 210 214 215 220 224 228 233 237 244 251 258 267 276 276 274 278 273 268 267 273 269 262 259 267 262 259 264 271 276 287 253 250 250 239
192 199 199 199 199 199 203 207 212 214 217 220 223 224 228 238 247 257 263 266 273 283 278 278 271 270 264 263 262 263 264 262 264 263 261 260 270 279 281 268 248 252 247
197 201 204 203 202 203 205 210 215 219 222 225 227 229 236 246 254 262 271 274 269 272 280 285 266 263 259 258 259 260 260 259 259 262 259 262 265 281 277 272 249 250 254
196 205 208 207 207 207 209 213 217 221 224 228 225 225 235 248 258 263 276 281 289 302 274 278 283 275 262 259 257 271 263 258 253 255 259 260 268 278 272 267 250 255 256
200 206 210 208 209 210 213 216 218 222 226 228 230 232 238 246 253 262 267 281 286 288 295 277 287 281 261 265 260 260 262 257 257 257 260 260 263 270 272 262 254 256 257
206 210 209 210 211 211 212 214 219 223 226 233 238 242 244 248 253 262 273 273 280 284 289 270 288 276 263 264 259 259 252 250 261 258 265 270 248 241 252 264 268 255 250
206 211 207 209 211 213 215 215 219 222 225 236 246 245 246 249 251 255 261 268 278 288 285 265 287 261 257 247 252 254 247 260 254 268 261 237 230 235 242 245 259 269 255
204 206 210 210 210 213 215 215 220 225 225 231 246 234 241 245 249 256 257 264 278 282 286 287 278 268 227 247 264 261 254 263 243 243 250 231 223 242 238 240 243 266 268
207 208 210 210 210 212 215 220 223 227 228 219 218 225 232 247 255 261 263 264 274 282 286 294 288 254 256 252 254 250 254 240 238 250 248 242 245 243 233 233 241 248 256
207 209 210 212 211 215 216 221 225 227 219 216 221 224 234 256 267 267 256 263 264 272 283 280 267 234 241 250 245 264 277 252 256 247 247 240 238 232 238 243 243 247 251
203 207 207 205 208 210 213 217 222 212 218 225 231 234 238 254 268 270 250 256 261 259 266 259 258 258 241 210 214 273 266 250 258 263 239 223 231 234 253 240 246 249 255
206 204 203 205 204 209 208 210 207 215 227 238 241 242 238 250 260 269 232 242 253 257 251 250 275 263 245 223 201 239 327 309 255 248 246 235 237 240 253 253 246 251 260
209 206 203 204 206 209 204 206 212 222 229 234 237 236 235 246 252 265 235 237 252 256 254 265 255 235 247 231 223 213 144 250 305 249 237 243 249 241 251 255 245 249 264
210 206 207 204 204 206 208 207 211 214 214 225 231 231 235 247 259 261 247 239 250 250 245 255 252 248 239 237 232 240 246 245 196 331 327 271 255 241 258 250 243 254 263
203 201 206 205 205 208 212 212 215 216 222 226 227 231 238 251 261 269 252 242 244 245 242 251 256 249 236 246 233 209 215 227 219 159 289 328 202 245 258 254 251 253 261
196 197 200 204 205 209 214 214 217 217 218 221 226 226 233 246 266 265 251 244 247 249 247 249 253 256 247 248 242 236 217 202 204 190 204 237 197 193 213 242 235 233 238